Wetterstats.de || Aktuelle Messwerte || Aktuelle Wetterkarten NEU! || Radar / Satellit NEU! || Wetterarchiv UPDATE! || Klim. Kenntage || Met. Ereignisse || Agrarwerte || Echtzeitwerte

Monatsübersicht für März 2020 Diagramm
 
Wetter Information zur Wetteranzeige
Zeitraffer
Tageslänge (hh:mm)
Höchsttemperatur in °C
Uhrzeit
Tiefsttemperatur in °C
Uhrzeit
Luftfeuchte (max., in %)
Uhrzeit
Luftfeuchte (min., in %)
Uhrzeit
Luftdruck (max., in hPa)
Uhrzeit
Luftdruck (min., in hPa)
Uhrzeit
Luftdruck (Ø, in hPa)
Regenrate (max, mm/h)
Uhrzeit
Niederschlag in mm
Verdunstung in mm
Solar in W/m² (Ø)
Solar in W/m² (max.)
UV-Index (max.)
Sonnenscheindauer (hh:mm)
Windrichtung (Ø)
Windstärke (Ø in km/h)
Windstärke (Ø in bft)
Windböe (max., in km/h)
Uhrzeit
Windböe (max., in bft)
Uhrzeit
Taupunkt (max., in °C)
Uhrzeit
Taupunkt (min., in °C)
Uhrzeit
Windchill (min., in °C)
Uhrzeit
Gewitterindex (max.)
Uhrzeit
Waldbrandindex (max.)
Uhrzeit
Graslandfeuerindex (max.)
Uhrzeit
Staubsturm-Index (max.)
Uhrzeit
01
Kein Zeitraffer vorhanden
10:58
7.4
17:53 Uhr
3.9
21:25 Uhr

89
21:59 Uhr
75
17:53 Uhr
998.6
18:20 Uhr

997.0
23:20 Uhr
997.9
0,000
17:53 Uhr
0,000
0.102
0
0
17:53 Uhr
0.0
17:53 Uhr

00:00:00
3,5
1
14,5
22:44 Uhr

3
3.3
17:53 Uhr
1.9
21:00 Uhr
3.9
21:25 Uhr
0
17:53 Uhr
0.0
17:53 Uhr
0.0
17:53 Uhr
0.0
17:53 Uhr
02
Kein Zeitraffer vorhanden
11:02
9.1
14:25 Uhr
3.2
23:15 Uhr

93
04:15 Uhr
70
13:40 Uhr
997.0
11:45 Uhr

993.2
06:20 Uhr
995.2
26,400
11:55 Uhr
3,000
0.989
147
615
13:25 Uhr
1.6
12:55 Uhr

01:15:00
5,9
1
33,8
11:55 Uhr

5
4.8
09:15 Uhr
1.4
23:40 Uhr
0.3
03:30 Uhr
0
00:00 Uhr
0.0
00:00 Uhr
0.0
00:00 Uhr
0.0
00:00 Uhr
03
Kein Zeitraffer vorhanden
11:06
6.9
14:35 Uhr
3.2
00:00 Uhr

93
22:15 Uhr
83
10:45 Uhr
1006.3
23:40 Uhr

994.7
03:25 Uhr
999.1
2,400
15:50 Uhr
0,200
0.508
62
224
11:50 Uhr
0.9
11:50 Uhr

00:00:00
6,3
1
40,2
16:35 Uhr

5
4.9
15:25 Uhr
1.3
23:50 Uhr
-3.3
16:20 Uhr
0
00:00 Uhr
0.0
00:00 Uhr
0.0
00:00 Uhr
0.0
00:00 Uhr
04
Zeitraffer
11:09
8.3
15:20 Uhr
0.4
06:55 Uhr

92
06:50 Uhr
65
17:40 Uhr
1011.5
09:30 Uhr

1006.2
00:00 Uhr
1010.0
0,000
00:00 Uhr
0,000
1.118
194
598
11:30 Uhr
1.4
11:45 Uhr

04:33:00
4,8
1
25,7
14:55 Uhr

4
3.0
12:05 Uhr
-0.7
06:55 Uhr
-0.9
07:55 Uhr
0
00:00 Uhr
0.0
00:00 Uhr
0.1
17:00 Uhr
0.0
00:00 Uhr
05
Kein Zeitraffer vorhanden
11:14
11.4
14:50 Uhr
0.0
06:40 Uhr

95
04:50 Uhr
49
16:55 Uhr
1010.1
00:35 Uhr

994.9
23:45 Uhr
1004.0
0,000
00:00 Uhr
0,000
1.575
234
563
13:00 Uhr
2.0
12:20 Uhr

04:35:00
5,5
1
27,4
15:55 Uhr

4
4.4
11:35 Uhr
-0.7
06:40 Uhr
-0.7
22:30 Uhr
0
00:00 Uhr
0.1
17:05 Uhr
1.5
17:05 Uhr
0.0
00:00 Uhr
06
Kein Zeitraffer vorhanden
11:18
7.7
14:50 Uhr
3.5
05:20 Uhr

96
20:05 Uhr
69
00:45 Uhr
999.9
23:55 Uhr

991.7
05:30 Uhr
994.0
7,200
16:35 Uhr
5,000
0.305
45
166
14:40 Uhr
0.8
12:50 Uhr

00:00:00
6,9
1
25,7
23:35 Uhr

4
6.8
16:20 Uhr
0.2
00:45 Uhr
-1.6
04:35 Uhr
0
00:00 Uhr
0.4
00:00 Uhr
1.5
01:05 Uhr
0.0
00:00 Uhr
07
Zeitraffer
11:22
6.8
17:05 Uhr
1.3
23:55 Uhr

96
00:00 Uhr
72
16:05 Uhr
1020.4
22:25 Uhr

999.9
00:00 Uhr
1011.6
2,400
09:50 Uhr
0,200
0.483
51
297
13:40 Uhr
1.0
13:40 Uhr

00:02:00
9,9
2
40,2
14:05 Uhr

5
3.9
00:00 Uhr
-0.2
23:20 Uhr
-4.4
12:50 Uhr
0
00:00 Uhr
0.0
00:00 Uhr
0.0
00:00 Uhr
0.0
00:00 Uhr
08
Zeitraffer
11:27
10.1
15:30 Uhr
-0.8
06:40 Uhr

94
03:10 Uhr
69
15:15 Uhr
1020.6
01:15 Uhr

1011.6
23:55 Uhr
1016.6
0,000
00:00 Uhr
0,000
0.991
148
358
15:10 Uhr
1.2
13:30 Uhr

01:27:00
4,7
1
32,2
14:45 Uhr

5
5.0
15:30 Uhr
-1.6
06:35 Uhr
-0.8
06:40 Uhr
0
00:00 Uhr
0.0
00:00 Uhr
0.0
00:00 Uhr
0.0
00:00 Uhr
09
Zeitraffer
11:31
10.7
17:20 Uhr
4.9
02:55 Uhr

94
09:20 Uhr
70
17:30 Uhr
1014.6
23:55 Uhr

1009.6
05:20 Uhr
1011.7
2,400
08:30 Uhr
0,600
0.635
97
333
15:20 Uhr
1.0
11:35 Uhr

00:59:00
3,7
1
17,7
12:35 Uhr

3
7.5
16:10 Uhr
2.6
02:55 Uhr
4.9
02:55 Uhr
0
00:00 Uhr
0.0
00:00 Uhr
0.0
00:00 Uhr
0.0
00:00 Uhr
10
Zeitraffer
11:34
9.9
23:40 Uhr
2.2
04:25 Uhr

94
14:35 Uhr
79
09:35 Uhr
1014.5
00:00 Uhr

999.8
23:50 Uhr
1006.9
2,400
10:10 Uhr
4,400
0.610
84
307
09:25 Uhr
0.9
11:30 Uhr

00:33:00
10,7
2
48,3
11:15 Uhr

6
8.9
23:55 Uhr
1.1
04:15 Uhr
-2.6
11:00 Uhr
0
00:00 Uhr
0.0
00:00 Uhr
0.0
00:00 Uhr
0.0
00:00 Uhr
11
Zeitraffer
11:39
12.9
16:25 Uhr
7.2
22:20 Uhr

94
00:35 Uhr
57
12:25 Uhr
1012.0
18:45 Uhr

999.7
00:05 Uhr
1008.1
9,600
01:25 Uhr
3,400
1.854
194
684
12:05 Uhr
2.6
12:20 Uhr

03:02:00
11,2
2
38,6
01:00 Uhr

5
9.9
01:15 Uhr
4.3
13:30 Uhr
1.8
06:20 Uhr
2
00:00 Uhr
0.0
00:00 Uhr
0.0
00:00 Uhr
0.0
00:00 Uhr
12
Zeitraffer
11:43
13.8
08:55 Uhr
5.0
22:05 Uhr

95
01:55 Uhr
33
16:05 Uhr
1010.1
23:40 Uhr

1001.7
08:50 Uhr
1006.4
9,600
09:20 Uhr
2,000
2.311
152
522
14:00 Uhr
2.2
11:35 Uhr

02:44:00
15,8
3
61,2
11:05 Uhr

7
10.2
04:40 Uhr
-4.8
16:05 Uhr
0.1
12:45 Uhr
2
01:55 Uhr
0.0
00:00 Uhr
0.0
00:00 Uhr
0.0
00:00 Uhr
13
Zeitraffer
11:47
9.3
14:30 Uhr
2.9
04:25 Uhr

81
04:15 Uhr
58
12:00 Uhr
1018.9
23:55 Uhr

1009.0
11:45 Uhr
1011.6
0,000
00:00 Uhr
0,000
1.981
148
655
10:45 Uhr
1.7
10:45 Uhr

02:31:00
15,2
3
56,3
15:05 Uhr

7
4.0
16:25 Uhr
-0.8
23:50 Uhr
-4.1
22:10 Uhr
0
00:00 Uhr
0.0
00:00 Uhr
0.0
00:00 Uhr
0.0
00:00 Uhr
14
Zeitraffer
11:51
9.9
15:10 Uhr
-1.6
06:50 Uhr

92
06:40 Uhr
38
16:25 Uhr
1026.3
20:15 Uhr

1019.1
00:00 Uhr
1024.3
0,000
00:00 Uhr
0,000
2.032
319
598
10:25 Uhr
2.0
11:40 Uhr

09:04:00
3,2
1
20,9
00:05 Uhr

4
0.1
09:10 Uhr
-5.1
21:15 Uhr
-1.7
00:35 Uhr
0
00:00 Uhr
0.0
00:00 Uhr
0.5
16:00 Uhr
0.0
00:00 Uhr
15
Zeitraffer
11:55
12.0
15:35 Uhr
-1.6
06:05 Uhr

75
05:25 Uhr
25
15:55 Uhr
1025.6
00:00 Uhr

1016.7
21:15 Uhr
1021.1
0,000
00:00 Uhr
0,000
2.718
290
579
12:05 Uhr
2.2
12:00 Uhr

09:00:00
7,0
1
40,2
14:20 Uhr

5
-0.6
12:35 Uhr
-7.9
16:05 Uhr
-1.6
06:05 Uhr
0
00:00 Uhr
0.3
15:35 Uhr
1.5
15:05 Uhr
0.0
00:00 Uhr


 
Wetter Information zur Wetteranzeige
Zeitraffer
Tageslänge (hh:mm)
Höchsttemperatur in °C
Uhrzeit
Tiefsttemperatur in °C
Uhrzeit
Luftfeuchte (max., in %)
Uhrzeit
Luftfeuchte (min., in %)
Uhrzeit
Luftdruck (max., in hPa)
Uhrzeit
Luftdruck (min., in hPa)
Uhrzeit
Luftdruck (Ø, in hPa)
Regenrate (max, mm/h)
Uhrzeit
Niederschlag in mm
Verdunstung in mm
Solar in W/m² (Ø)
Solar in W/m² (max.)
UV-Index (max.)
Sonnenscheindauer (hh:mm)
Windrichtung (Ø)
Windstärke (Ø in km/h)
Windstärke (Ø in bft)
Windböe (max., in km/h)
Uhrzeit
Windböe (max., in bft)
Uhrzeit
Taupunkt (max., in °C)
Uhrzeit
Taupunkt (min., in °C)
Uhrzeit
Windchill (min., in °C)
Uhrzeit
Gewitterindex (max.)
Uhrzeit
Waldbrandindex (max.)
Uhrzeit
Graslandfeuerindex (max.)
Uhrzeit
Staubsturm-Index (max.)
Uhrzeit
16
Zeitraffer
11:59
17.3
15:35 Uhr
2.1
06:10 Uhr

83
23:55 Uhr
39
14:05 Uhr
1024.4
23:00 Uhr

1016.4
05:35 Uhr
1019.5
0,000
00:00 Uhr
0,000
2.515
300
601
11:50 Uhr
2.4
11:50 Uhr

08:29:00
3,8
1
20,9
11:10 Uhr

4
4.8
18:55 Uhr
-4.3
04:35 Uhr
2.1
06:10 Uhr
0
00:00 Uhr
1.1
14:20 Uhr
2.2
15:25 Uhr
0.0
00:00 Uhr
17
Zeitraffer
12:04
15.9
14:40 Uhr
2.8
05:50 Uhr

93
05:00 Uhr
41
14:45 Uhr
1029.1
21:45 Uhr

1024.1
00:00 Uhr
1027.1
0,000
00:00 Uhr
0,000
2.083
241
622
12:30 Uhr
2.4
12:30 Uhr

05:33:00
3,9
1
30,6
14:45 Uhr

5
7.9
11:40 Uhr
1.4
05:45 Uhr
2.8
05:50 Uhr
0
00:00 Uhr
1.3
15:05 Uhr
2.5
15:10 Uhr
0.0
00:00 Uhr
18
Zeitraffer
12:08
17.7
15:00 Uhr
5.1
06:35 Uhr

94
04:10 Uhr
32
14:35 Uhr
1028.4
00:05 Uhr

1023.7
16:40 Uhr
1025.9
0,000
00:00 Uhr
0,000
2.794
298
605
12:00 Uhr
2.8
12:00 Uhr

08:37:00
5,8
1
35,4
12:40 Uhr

5
5.7
08:55 Uhr
0.6
14:35 Uhr
5.1
06:35 Uhr
0
00:00 Uhr
1.8
14:50 Uhr
3.1
15:00 Uhr
0.5
12:45 Uhr
19
Zeitraffer
12:11
15.9
12:15 Uhr
7.8
01:25 Uhr

82
19:40 Uhr
63
12:15 Uhr
1026.4
19:30 Uhr

1023.5
05:00 Uhr
1024.9
0,000
00:00 Uhr
0,000
1.524
168
469
11:55 Uhr
2.4
11:45 Uhr

01:48:00
4,7
1
25,7
10:50 Uhr

4
9.1
14:00 Uhr
3.7
01:20 Uhr
5.2
19:05 Uhr
0
00:00 Uhr
1.3
12:35 Uhr
2.7
13:05 Uhr
0.0
00:00 Uhr
20
Zeitraffer
12:16
9.9
15:55 Uhr
5.5
23:50 Uhr

83
01:05 Uhr
57
18:05 Uhr
1027.8
23:20 Uhr

1025.1
16:30 Uhr
1026.0
0,000
00:00 Uhr
0,000
0.787
65
127
10:50 Uhr
0.9
11:55 Uhr

00:00:00
5,1
1
29,0
23:25 Uhr

4
5.2
00:00 Uhr
0.3
18:50 Uhr
0.5
23:15 Uhr
0
00:00 Uhr
1.3
16:10 Uhr
2.7
18:25 Uhr
0.0
00:00 Uhr
21
Zeitraffer
12:20
7.9
14:10 Uhr
0.7
23:55 Uhr

86
03:35 Uhr
38
16:30 Uhr
1034.1
23:10 Uhr

1027.7
00:00 Uhr
1030.9
0,000
00:00 Uhr
0,000
2.210
231
840
12:45 Uhr
2.7
12:05 Uhr

04:45:00
11,6
2
33,8
09:05 Uhr

5
2.0
01:20 Uhr
-6.6
16:30 Uhr
-5.4
06:50 Uhr
0
00:00 Uhr
2.0
15:30 Uhr
3.6
16:55 Uhr
1.2
12:55 Uhr
22
Zeitraffer
12:24
6.5
14:20 Uhr
-1.8
05:55 Uhr

79
06:20 Uhr
27
15:25 Uhr
1039.9
23:50 Uhr

1034.1
00:15 Uhr
1036.7
0,000
00:00 Uhr
0,000
2.692
355
644
11:35 Uhr
2.6
12:05 Uhr

09:46:00
8,1
2
45,1
13:50 Uhr

6
-4.0
07:10 Uhr
-11.6
17:35 Uhr
-5.4
04:10 Uhr
0
00:00 Uhr
2.8
15:05 Uhr
5.0
16:40 Uhr
2.6
13:50 Uhr
23
Zeitraffer
12:28
7.1
14:30 Uhr
-4.8
06:20 Uhr

71
06:00 Uhr
27
13:00 Uhr
1041.7
08:40 Uhr

1037.8
17:35 Uhr
1039.7
0,000
00:00 Uhr
0,000
2.489
352
610
11:50 Uhr
2.5
12:00 Uhr

10:00:00
4,8
1
30,6
10:35 Uhr

5
-7.2
07:25 Uhr
-11.7
13:15 Uhr
-4.8
06:20 Uhr
0
00:00 Uhr
3.3
14:05 Uhr
5.9
15:05 Uhr
2.7
11:40 Uhr
24
Zeitraffer
12:32
9.2
16:00 Uhr
-4.6
04:40 Uhr

71
04:55 Uhr
23
14:25 Uhr
1039.7
08:35 Uhr

1035.4
16:50 Uhr
1037.5
0,000
00:00 Uhr
0,000
2.743
358
615
12:20 Uhr
2.7
12:20 Uhr

09:57:00
5,2
1
32,2
10:20 Uhr

5
-7.0
07:55 Uhr
-11.6
12:40 Uhr
-4.6
04:40 Uhr
0
00:00 Uhr
3.8
15:00 Uhr
5.9
11:25 Uhr
2.9
11:25 Uhr
25
Zeitraffer
12:36
10.6
15:15 Uhr
-2.3
05:40 Uhr

59
05:55 Uhr
19
15:30 Uhr
1035.5
00:00 Uhr

1029.7
17:40 Uhr
1032.8
0,000
00:00 Uhr
0,000
3.226
355
611
12:05 Uhr
2.8
11:55 Uhr

09:56:00
8,3
2
29,0
09:10 Uhr

4
-8.3
07:40 Uhr
-12.4
15:35 Uhr
-3.3
09:10 Uhr
0
00:00 Uhr
4.2
15:25 Uhr
5.9
10:05 Uhr
3.5
10:30 Uhr
26
Zeitraffer
12:41
11.8
14:55 Uhr
-0.6
05:30 Uhr

56
05:55 Uhr
30
13:40 Uhr
1030.1
08:00 Uhr

1025.5
23:45 Uhr
1028.0
0,000
00:00 Uhr
0,000
3.327
339
598
12:00 Uhr
2.4
11:55 Uhr

09:45:00
8,9
2
30,6
14:45 Uhr

5
-3.5
22:50 Uhr
-9.1
00:00 Uhr
-3.2
07:35 Uhr
0
00:00 Uhr
4.4
16:05 Uhr
5.9
00:00 Uhr
3.7
16:30 Uhr
27
Zeitraffer
12:44
17.9
13:45 Uhr
4.1
06:20 Uhr

61
23:55 Uhr
31
14:00 Uhr
1025.6
00:00 Uhr

1020.9
16:55 Uhr
1023.2
0,000
00:00 Uhr
0,000
3.353
329
601
13:16 Uhr
2.5
12:30 Uhr

09:33:00
6,6
1
22,5
15:40 Uhr

4
1.4
13:45 Uhr
-3.9
02:15 Uhr
0.9
06:10 Uhr
0
00:00 Uhr
4.8
14:05 Uhr
5.9
00:00 Uhr
2.7
17:20 Uhr
28
Zeitraffer
12:49
16.4
15:30 Uhr
2.7
06:00 Uhr

88
06:20 Uhr
32
14:40 Uhr
1021.1
00:00 Uhr

1016.7
17:00 Uhr
1019.0
0,000
00:00 Uhr
0,000
3.073
322
575
12:05 Uhr
2.4
11:50 Uhr

09:26:00
6,7
1
29,0
12:35 Uhr

4
2.6
07:55 Uhr
-2.9
18:10 Uhr
2.4
05:50 Uhr
0
00:00 Uhr
5.1
15:00 Uhr
5.9
00:00 Uhr
3.2
13:10 Uhr
29
Zeitraffer
12:53
6.3
11:05 Uhr
0.1
23:55 Uhr

86
09:50 Uhr
41
21:55 Uhr
1030.1
23:40 Uhr

1017.5
04:40 Uhr
1022.4
2,400
14:55 Uhr
0,200
1.142
93
350
15:40 Uhr
1.4
14:15 Uhr

00:18:00
11,4
2
46,7
13:30 Uhr

6
2.5
10:10 Uhr
-10.5
22:00 Uhr
-7.7
18:10 Uhr
0
00:00 Uhr
4.4
22:10 Uhr
5.9
00:00 Uhr
4.6
13:35 Uhr
30
Zeitraffer
12:57
4.2
12:15 Uhr
-3.3
07:25 Uhr

90
15:20 Uhr
40
11:25 Uhr
1030.2
00:05 Uhr

1024.7
17:30 Uhr
1027.2
0,000
00:00 Uhr
0,000
1.270
162
469
09:45 Uhr
1.8
11:50 Uhr

03:07:00
6,7
1
32,2
11:10 Uhr

5
0.3
23:25 Uhr
-9.7
00:45 Uhr
-5.7
10:50 Uhr
0
00:00 Uhr
4.6
12:05 Uhr
5.9
00:00 Uhr
3.6
10:55 Uhr
31
Zeitraffer
13:01
6.9
13:30 Uhr
-1.1
06:35 Uhr

89
02:50 Uhr
34
16:20 Uhr
1031.7
10:05 Uhr

1027.1
00:00 Uhr
1029.5
2,400
16:30 Uhr
0,200
1.727
242
896
12:15 Uhr
3.5
13:05 Uhr

04:42:00
5,4
1
27,4
01:50 Uhr

4
0.0
00:00 Uhr
-8.5
16:20 Uhr
-6.2
01:40 Uhr
0
00:00 Uhr
4.8
16:25 Uhr
5.9
00:00 Uhr
3.1
01:55 Uhr
Stationsstandorte || Wetterblog || Wissenswertes || Downloads || Seiten-Historie || Partner || Impressum / Datenschutz